GLO1756 SBBR-SBPV

Flight info

Callsign GLO1756
Flight time 2h 30m
Altitude 38000
Route UGUGA UZ40 PVH
Aircraft B738/M-SDE2E3FGHIRWXY/LB1

Departure

Time 2026-05-05 23:37
Airport Presidente Juscelino Kubitschek International Airport (SBBR)

Arrival

Time 2026-05-06 02:07
Airport Governador Jorge Teixeira de Oliveira International Airport (SBPV)
Time Latitude Longitude Altitude Speed Heading
2026-05-05 23:20 -15.86707 -47.91892 3471 ft 0 kts 176°
2026-05-05 23:29 -15.86693 -47.91893 3470 ft 4 kts 176°
2026-05-05 23:29 -15.86666 -47.91895 3471 ft 4 kts 176°
2026-05-05 23:29 -15.86642 -47.91897 3471 ft 4 kts 182°
2026-05-05 23:29 -15.86621 -47.91889 3470 ft 4 kts 242°
2026-05-05 23:30 -15.86615 -47.91866 3470 ft 2 kts 266°
2026-05-05 23:30 -15.86615 -47.91860 3470 ft 0 kts 266°
2026-05-05 23:32 -15.86616 -47.91884 3470 ft 7 kts 267°
2026-05-05 23:32 -15.86620 -47.91951 3470 ft 12 kts 266°
2026-05-05 23:32 -15.86627 -47.92044 3471 ft 14 kts 266°
2026-05-05 23:33 -15.86633 -47.92142 3471 ft 13 kts 268°
2026-05-05 23:33 -15.86603 -47.92233 3469 ft 14 kts 297°
2026-05-05 23:33 -15.86554 -47.92318 3468 ft 13 kts 305°
2026-05-05 23:33 -15.86528 -47.92406 3467 ft 13 kts 269°
2026-05-05 23:34 -15.86534 -47.92497 3466 ft 13 kts 266°
2026-05-05 23:34 -15.86539 -47.92587 3464 ft 12 kts 265°
2026-05-05 23:34 -15.86546 -47.92674 3463 ft 12 kts 265°
2026-05-05 23:34 -15.86536 -47.92756 3460 ft 12 kts 312°
2026-05-05 23:35 -15.86500 -47.92766 3460 ft 3 kts 357°
2026-05-05 23:35 -15.86469 -47.92768 3460 ft 6 kts 357°
2026-05-05 23:35 -15.86413 -47.92758 3459 ft 10 kts 36°
2026-05-05 23:35 -15.86360 -47.92706 3458 ft 10 kts 60°
2026-05-05 23:36 -15.86353 -47.92675 3460 ft 0 kts 85°
2026-05-05 23:36 -15.86345 -47.92563 3461 ft 46 kts 86°
2026-05-05 23:36 -15.86308 -47.91990 3465 ft 111 kts 86°
2026-05-05 23:36 -15.86243 -47.90992 3488 ft 162 kts 86°
2026-05-05 23:37 -15.86152 -47.89772 4057 ft 173 kts 87°
2026-05-05 23:37 -15.86063 -47.88523 4889 ft 171 kts 88°
2026-05-05 23:37 -15.85990 -47.87277 5599 ft 180 kts 88°
2026-05-05 23:37 -15.85911 -47.85875 5845 ft 207 kts 88°
2026-05-05 23:38 -15.85820 -47.84313 6019 ft 230 kts 88°
2026-05-05 23:38 -15.85689 -47.82600 6300 ft 250 kts 80°
2026-05-05 23:38 -15.84817 -47.80975 6618 ft 270 kts 46°
2026-05-05 23:38 -15.83198 -47.79943 7396 ft 280 kts 21°
2026-05-05 23:39 -15.81249 -47.79700 8245 ft 288 kts 356°
2026-05-05 23:39 -15.79338 -47.80369 9134 ft 295 kts 329°
2026-05-05 23:39 -15.77859 -47.81866 10112 ft 301 kts 307°
2026-05-05 23:39 -15.76780 -47.83755 10744 ft 312 kts 299°
2026-05-05 23:40 -15.75792 -47.85835 10923 ft 337 kts 296°
2026-05-05 23:40 -15.74771 -47.88110 11227 ft 355 kts 296°
2026-05-05 23:40 -15.73721 -47.90459 11836 ft 361 kts 296°
2026-05-05 23:40 -15.72648 -47.92825 12554 ft 363 kts 296°
2026-05-05 23:41 -15.71551 -47.95206 13226 ft 367 kts 296°
2026-05-05 23:41 -15.70476 -47.97597 14098 ft 362 kts 294°
2026-05-05 23:41 -15.69479 -47.99951 15078 ft 351 kts 293°
2026-05-05 23:41 -15.68491 -48.02260 15809 ft 352 kts 293°
2026-05-05 23:42 -15.67463 -48.04591 16361 ft 357 kts 294°
2026-05-05 23:42 -15.66398 -48.06941 16945 ft 361 kts 294°
2026-05-05 23:42 -15.65305 -48.09301 17561 ft 364 kts 294°
2026-05-05 23:42 -15.64191 -48.11669 18159 ft 366 kts 294°
2026-05-05 23:43 -15.63073 -48.14024 18692 ft 370 kts 294°
2026-05-05 23:43 -15.61926 -48.16428 19196 ft 372 kts 294°
2026-05-05 23:43 -15.60769 -48.18841 19707 ft 375 kts 294°
2026-05-05 23:43 -15.59599 -48.21276 20212 ft 378 kts 294°
2026-05-05 23:44 -15.58418 -48.23730 20712 ft 381 kts 294°
2026-05-05 23:44 -15.57231 -48.26195 21223 ft 384 kts 294°
2026-05-05 23:44 -15.56031 -48.28688 21709 ft 387 kts 294°
2026-05-05 23:44 -15.54822 -48.31198 22183 ft 391 kts 294°
2026-05-05 23:45 -15.53616 -48.33700 22665 ft 394 kts 294°
2026-05-05 23:45 -15.52385 -48.36251 23166 ft 397 kts 294°
2026-05-05 23:45 -15.51147 -48.38818 23645 ft 400 kts 294°
2026-05-05 23:45 -15.49897 -48.41409 24056 ft 403 kts 294°
2026-05-05 23:46 -15.48641 -48.44010 24478 ft 404 kts 293°
2026-05-05 23:46 -15.47381 -48.46621 24915 ft 406 kts 293°
2026-05-05 23:46 -15.46115 -48.49242 25327 ft 407 kts 293°
2026-05-05 23:46 -15.44842 -48.51875 25748 ft 409 kts 293°
2026-05-05 23:47 -15.43564 -48.54518 26165 ft 411 kts 292°
2026-05-05 23:47 -15.42284 -48.57165 26661 ft 410 kts 292°
2026-05-05 23:47 -15.41011 -48.59795 27273 ft 405 kts 292°
2026-05-05 23:47 -15.39755 -48.62388 27866 ft 402 kts 292°
2026-05-05 23:48 -15.38503 -48.64971 28388 ft 400 kts 292°
2026-05-05 23:48 -15.37262 -48.67532 29079 ft 392 kts 291°
2026-05-05 23:48 -15.36047 -48.70033 29849 ft 386 kts 291°
2026-05-05 23:48 -15.34839 -48.72524 30249 ft 388 kts 291°
2026-05-05 23:49 -15.33640 -48.75005 30476 ft 392 kts 291°
2026-05-05 23:49 -15.32413 -48.77540 30749 ft 394 kts 291°
2026-05-05 23:49 -15.31176 -48.80092 31043 ft 395 kts 291°
2026-05-05 23:49 -15.29940 -48.82642 31307 ft 397 kts 291°
2026-05-05 23:50 -15.28697 -48.85204 31563 ft 398 kts 290°
2026-05-05 23:50 -15.27448 -48.87776 31808 ft 400 kts 290°
2026-05-05 23:50 -15.26213 -48.90318 32052 ft 401 kts 290°
2026-05-05 23:50 -15.24957 -48.92902 32294 ft 402 kts 290°
2026-05-05 23:51 -15.23698 -48.95493 32537 ft 404 kts 290°
2026-05-05 23:51 -15.22433 -48.98097 32762 ft 405 kts 290°
2026-05-05 23:51 -15.21164 -49.00705 32996 ft 406 kts 290°
2026-05-05 23:51 -15.19888 -49.03326 33207 ft 408 kts 290°
2026-05-05 23:52 -15.18609 -49.05953 33467 ft 409 kts 290°
2026-05-05 23:52 -15.17323 -49.08593 33703 ft 410 kts 290°
2026-05-05 23:52 -15.16035 -49.11238 33929 ft 412 kts 290°
2026-05-05 23:52 -15.14744 -49.13888 34154 ft 413 kts 290°
2026-05-05 23:53 -15.13466 -49.16511 34357 ft 413 kts 290°
2026-05-05 23:53 -15.12167 -49.19172 34582 ft 413 kts 290°
2026-05-05 23:53 -15.10866 -49.21838 34814 ft 413 kts 290°
2026-05-05 23:53 -15.09569 -49.24495 35003 ft 414 kts 290°
2026-05-05 23:54 -15.08262 -49.27171 35173 ft 416 kts 290°
2026-05-05 23:54 -15.06973 -49.29809 35361 ft 416 kts 290°
2026-05-05 23:54 -15.05664 -49.32488 35536 ft 417 kts 290°
2026-05-05 23:54 -15.04352 -49.35174 35710 ft 419 kts 290°
2026-05-05 23:55 -15.03034 -49.37866 35891 ft 419 kts 290°
2026-05-05 23:55 -15.01718 -49.40556 36039 ft 420 kts 290°
2026-05-05 23:55 -15.00394 -49.43264 36198 ft 421 kts 291°
2026-05-05 23:55 -14.99067 -49.45974 36381 ft 421 kts 290°
2026-05-05 23:56 -14.97741 -49.48682 36549 ft 422 kts 290°
2026-05-05 23:56 -14.96432 -49.51355 36700 ft 423 kts 290°
2026-05-05 23:56 -14.95096 -49.54081 36843 ft 424 kts 291°
2026-05-05 23:56 -14.93760 -49.56808 36976 ft 425 kts 291°
2026-05-05 23:57 -14.92420 -49.59542 37111 ft 426 kts 291°
2026-05-05 23:57 -14.91078 -49.62279 37252 ft 427 kts 291°
2026-05-05 23:57 -14.89732 -49.65020 37420 ft 427 kts 291°
2026-05-05 23:57 -14.88384 -49.67766 37570 ft 428 kts 291°
2026-05-05 23:58 -14.87052 -49.70476 37702 ft 429 kts 291°
2026-05-05 23:58 -14.85703 -49.73224 37824 ft 429 kts 291°
2026-05-05 23:58 -14.84347 -49.75982 37961 ft 430 kts 291°
2026-05-05 23:58 -14.82990 -49.78744 38056 ft 431 kts 291°
2026-05-05 23:59 -14.80250 -49.84317 38070 ft 436 kts 291°
2026-05-05 23:59 -14.77500 -49.89904 38069 ft 440 kts 291°
2026-05-06 00:00 -14.74711 -49.95565 38056 ft 443 kts 291°
2026-05-06 00:00 -14.71912 -50.01238 38040 ft 441 kts 291°
2026-05-06 00:01 -14.69164 -50.06798 38031 ft 432 kts 291°
2026-05-06 00:01 -14.66436 -50.12328 38040 ft 431 kts 291°
2026-05-06 00:02 -14.64164 -50.16929 38030 ft 431 kts 291°
2026-05-06 00:02 -14.60991 -50.23352 38035 ft 432 kts 291°
2026-05-06 00:03 -14.58259 -50.28876 38032 ft 432 kts 291°
2026-05-06 00:03 -14.55978 -50.33480 38022 ft 433 kts 291°
2026-05-06 00:04 -14.53226 -50.39034 38032 ft 437 kts 291°
2026-05-06 00:04 -14.50482 -50.44573 38029 ft 443 kts 292°
2026-05-06 00:05 -14.46227 -50.53151 38027 ft 450 kts 292°
2026-05-06 00:06 -14.43362 -50.58916 38009 ft 452 kts 292°
2026-05-06 00:06 -14.40503 -50.64663 38014 ft 453 kts 292°
2026-05-06 00:07 -14.37629 -50.70438 38006 ft 452 kts 292°
2026-05-06 00:07 -14.34762 -50.76195 38011 ft 451 kts 292°
2026-05-06 00:08 -14.31902 -50.81934 38005 ft 449 kts 292°
2026-05-06 00:08 -14.29052 -50.87649 38009 ft 447 kts 292°
2026-05-06 00:09 -14.26214 -50.93337 38007 ft 445 kts 292°
2026-05-06 00:09 -14.23399 -50.98975 38006 ft 444 kts 293°
2026-05-06 00:10 -14.20583 -51.04611 38017 ft 443 kts 293°
2026-05-06 00:10 -14.17763 -51.10253 38016 ft 442 kts 293°
2026-05-06 00:11 -14.14945 -51.15886 37999 ft 442 kts 293°
2026-05-06 00:11 -14.12126 -51.21517 38009 ft 442 kts 293°
2026-05-06 00:12 -14.09316 -51.27123 38011 ft 443 kts 293°
2026-05-06 00:12 -14.06483 -51.32774 38011 ft 444 kts 293°
2026-05-06 00:13 -14.03639 -51.38444 38009 ft 446 kts 293°
2026-05-06 00:13 -14.00831 -51.44038 38011 ft 447 kts 294°
2026-05-06 00:14 -13.97992 -51.49686 38000 ft 447 kts 294°
2026-05-06 00:14 -13.95128 -51.55379 38005 ft 447 kts 294°
2026-05-06 00:15 -13.92267 -51.61064 37989 ft 447 kts 294°
2026-05-06 00:15 -13.89402 -51.66751 38008 ft 446 kts 294°
2026-05-06 00:16 -13.86561 -51.72387 38010 ft 446 kts 294°
2026-05-06 00:16 -13.83703 -51.78057 38011 ft 446 kts 294°
2026-05-06 00:17 -13.80845 -51.83720 38006 ft 445 kts 294°
2026-05-06 00:17 -13.78002 -51.89350 38012 ft 444 kts 294°
2026-05-06 00:18 -13.75163 -51.94968 38012 ft 444 kts 294°
2026-05-06 00:18 -13.72311 -52.00607 38015 ft 444 kts 294°
2026-05-06 00:19 -13.69460 -52.06241 38016 ft 443 kts 294°
2026-05-06 00:19 -13.66627 -52.11836 38021 ft 443 kts 294°
2026-05-06 00:20 -13.63777 -52.17460 38020 ft 443 kts 294°
2026-05-06 00:20 -13.60920 -52.23095 38022 ft 444 kts 294°
2026-05-06 00:21 -13.58065 -52.28721 38018 ft 444 kts 294°
2026-05-06 00:21 -13.55219 -52.34327 38028 ft 444 kts 294°
2026-05-06 00:22 -13.52353 -52.39966 38021 ft 445 kts 294°
2026-05-06 00:22 -13.49483 -52.45612 38020 ft 445 kts 294°
2026-05-06 00:23 -13.46621 -52.51236 38022 ft 446 kts 294°
2026-05-06 00:23 -13.43743 -52.56890 38018 ft 447 kts 295°
2026-05-06 00:24 -13.40858 -52.62553 38021 ft 447 kts 295°
2026-05-06 00:24 -13.37966 -52.68225 38017 ft 448 kts 295°
2026-05-06 00:25 -13.35071 -52.73899 38019 ft 448 kts 295°
2026-05-06 00:25 -13.32174 -52.79571 38019 ft 448 kts 295°
2026-05-06 00:26 -13.29292 -52.85213 38019 ft 449 kts 295°
2026-05-06 00:26 -13.26392 -52.90889 38016 ft 449 kts 295°
2026-05-06 00:27 -13.23482 -52.96574 38016 ft 449 kts 295°
2026-05-06 00:27 -13.20574 -53.02254 38014 ft 449 kts 295°
2026-05-06 00:28 -13.17665 -53.07933 38013 ft 450 kts 295°
2026-05-06 00:28 -13.14754 -53.13611 38014 ft 450 kts 295°
2026-05-06 00:29 -13.11839 -53.19293 38009 ft 450 kts 295°
2026-05-06 00:29 -13.08939 -53.24944 38015 ft 450 kts 295°
2026-05-06 00:30 -13.06020 -53.30627 38010 ft 450 kts 295°
2026-05-06 00:30 -13.03091 -53.36324 38014 ft 450 kts 295°
2026-05-06 00:31 -13.00166 -53.42009 38014 ft 451 kts 295°
2026-05-06 00:31 -12.97237 -53.47702 38006 ft 451 kts 295°
2026-05-06 00:32 -12.94566 -53.53461 38014 ft 449 kts 289°
2026-05-06 00:32 -12.92337 -53.59435 38002 ft 449 kts 288°
2026-05-06 00:33 -12.90136 -53.65428 38011 ft 449 kts 288°
2026-05-06 00:33 -12.87888 -53.71405 38004 ft 450 kts 289°
2026-05-06 00:34 -12.85610 -53.77377 38002 ft 450 kts 289°
2026-05-06 00:34 -12.83324 -53.83355 38009 ft 450 kts 289°
2026-05-06 00:35 -12.81038 -53.89332 38002 ft 450 kts 289°
2026-05-06 00:35 -12.78761 -53.95281 38005 ft 451 kts 289°
2026-05-06 00:36 -12.76473 -54.01259 37997 ft 450 kts 289°
2026-05-06 00:36 -12.74182 -54.07235 38004 ft 451 kts 289°
2026-05-06 00:37 -12.71887 -54.13218 38001 ft 451 kts 289°
2026-05-06 00:37 -12.69589 -54.19202 38003 ft 451 kts 289°
2026-05-06 00:38 -12.67303 -54.25152 37996 ft 451 kts 289°
2026-05-06 00:38 -12.65004 -54.31135 37999 ft 451 kts 289°
2026-05-06 00:39 -12.62713 -54.37111 38001 ft 451 kts 289°
2026-05-06 00:39 -12.60419 -54.43102 38001 ft 451 kts 289°
2026-05-06 00:40 -12.58138 -54.49051 38003 ft 451 kts 289°
2026-05-06 00:40 -12.55840 -54.55033 38000 ft 452 kts 289°
2026-05-06 00:41 -12.53535 -54.61032 38002 ft 452 kts 289°
2026-05-06 00:41 -12.51229 -54.67030 37998 ft 452 kts 289°
2026-05-06 00:42 -12.48919 -54.72999 37996 ft 452 kts 289°
2026-05-06 00:42 -12.46596 -54.78993 37993 ft 453 kts 289°
2026-05-06 00:43 -12.44284 -54.84949 37999 ft 453 kts 289°
2026-05-06 00:43 -12.41948 -54.90936 37995 ft 452 kts 290°
2026-05-06 00:44 -12.39611 -54.96920 37994 ft 452 kts 289°
2026-05-06 00:44 -12.37287 -55.02869 37993 ft 452 kts 290°
2026-05-06 00:45 -12.34904 -55.08832 37992 ft 452 kts 290°
2026-05-06 00:45 -12.32475 -55.14765 37991 ft 452 kts 291°
2026-05-06 00:46 -12.30061 -55.20656 37993 ft 452 kts 290°
2026-05-06 00:46 -12.27644 -55.26569 37993 ft 453 kts 290°
2026-05-06 00:47 -12.25215 -55.32519 37992 ft 453 kts 290°
2026-05-06 00:47 -12.22786 -55.38466 37990 ft 454 kts 290°
2026-05-06 00:48 -12.20348 -55.44431 37987 ft 454 kts 290°
2026-05-06 00:48 -12.17929 -55.50342 37992 ft 454 kts 291°
2026-05-06 00:49 -12.15489 -55.56301 37991 ft 454 kts 291°
2026-05-06 00:49 -12.13050 -55.62255 37992 ft 454 kts 291°
2026-05-06 00:50 -12.10608 -55.68212 37990 ft 454 kts 291°
2026-05-06 00:50 -12.08184 -55.74121 37992 ft 454 kts 291°
2026-05-06 00:51 -12.05737 -55.80082 37990 ft 453 kts 291°
2026-05-06 00:51 -12.03707 -55.85025 37994 ft 454 kts 291°
2026-05-06 00:52 -12.00862 -55.91944 37987 ft 454 kts 291°
2026-05-06 00:52 -11.98809 -55.96933 37993 ft 454 kts 291°
2026-05-06 00:53 -11.96370 -56.02856 37993 ft 455 kts 291°
2026-05-06 00:53 -11.93912 -56.08819 37994 ft 455 kts 291°
2026-05-06 00:54 -11.91470 -56.14745 37993 ft 455 kts 291°
2026-05-06 00:54 -11.89010 -56.20700 37992 ft 455 kts 291°
2026-05-06 00:55 -11.86442 -56.26619 37992 ft 455 kts 292°
2026-05-06 00:55 -11.83830 -56.32505 37984 ft 455 kts 292°
2026-05-06 00:56 -11.81243 -56.38354 37987 ft 454 kts 292°
2026-05-06 00:56 -11.78652 -56.44238 37990 ft 455 kts 292°
2026-05-06 00:57 -11.76056 -56.50134 37991 ft 454 kts 292°
2026-05-06 00:57 -11.73478 -56.55988 37990 ft 454 kts 292°
2026-05-06 00:58 -11.70882 -56.61879 37987 ft 454 kts 292°
2026-05-06 00:58 -11.68292 -56.67750 37993 ft 454 kts 292°
2026-05-06 00:59 -11.65712 -56.73594 37991 ft 454 kts 292°
2026-05-06 00:59 -11.63112 -56.79478 37992 ft 454 kts 292°
2026-05-06 01:00 -11.60510 -56.85365 37990 ft 455 kts 293°
2026-05-06 01:00 -11.57906 -56.91256 37994 ft 455 kts 293°
2026-05-06 01:01 -11.55313 -56.97111 37997 ft 455 kts 293°
2026-05-06 01:01 -11.52702 -57.03000 37991 ft 455 kts 293°
2026-05-06 01:02 -11.50088 -57.08895 37989 ft 455 kts 293°
2026-05-06 01:02 -11.47479 -57.14775 37994 ft 455 kts 293°
2026-05-06 01:03 -11.44886 -57.20615 37997 ft 455 kts 293°
2026-05-06 01:03 -11.42275 -57.26491 37995 ft 455 kts 293°
2026-05-06 01:04 -11.39660 -57.32374 37987 ft 455 kts 293°
2026-05-06 01:04 -11.37044 -57.38254 38000 ft 455 kts 293°
2026-05-06 01:05 -11.34439 -57.44105 37997 ft 456 kts 294°
2026-05-06 01:05 -11.31814 -57.49996 37996 ft 456 kts 294°
2026-05-06 01:06 -11.29188 -57.55888 37991 ft 456 kts 294°
2026-05-06 01:06 -11.26562 -57.61776 37997 ft 456 kts 294°
2026-05-06 01:07 -11.23949 -57.67629 38003 ft 457 kts 294°
2026-05-06 01:07 -11.21319 -57.73520 37998 ft 457 kts 294°
2026-05-06 01:08 -11.18687 -57.79417 37997 ft 457 kts 294°
2026-05-06 01:08 -11.16058 -57.85315 38005 ft 457 kts 294°
2026-05-06 01:09 -11.13424 -57.91216 38007 ft 457 kts 294°
2026-05-06 01:09 -11.10791 -57.97108 38008 ft 457 kts 294°
2026-05-06 01:10 -11.08156 -58.03002 38000 ft 456 kts 294°
2026-05-06 01:10 -11.05544 -58.08841 38007 ft 456 kts 294°
2026-05-06 01:11 -11.02917 -58.14708 38007 ft 456 kts 294°
2026-05-06 01:11 -11.00285 -58.20585 38007 ft 455 kts 294°
2026-05-06 01:12 -10.97651 -58.26456 38004 ft 455 kts 294°
2026-05-06 01:12 -10.95017 -58.32314 38010 ft 454 kts 294°
2026-05-06 01:13 -10.92402 -58.38127 38014 ft 454 kts 294°
2026-05-06 01:13 -10.89771 -58.43972 38011 ft 454 kts 294°
2026-05-06 01:14 -10.85827 -58.52727 38008 ft 454 kts 294°
2026-05-06 01:14 -10.83192 -58.58572 38014 ft 453 kts 294°
2026-05-06 01:15 -10.80559 -58.64399 38012 ft 453 kts 294°
2026-05-06 01:15 -10.77955 -58.70192 38011 ft 453 kts 294°
2026-05-06 01:16 -10.75328 -58.76016 38013 ft 454 kts 294°
2026-05-06 01:16 -10.72689 -58.81868 38034 ft 457 kts 294°
2026-05-06 01:17 -10.70040 -58.87704 38018 ft 457 kts 294°
2026-05-06 01:17 -10.67379 -58.93576 38020 ft 457 kts 294°
2026-05-06 01:18 -10.64719 -58.99454 38017 ft 457 kts 294°
2026-05-06 01:18 -10.62060 -59.05324 38023 ft 456 kts 294°
2026-05-06 01:19 -10.59410 -59.11177 38023 ft 456 kts 295°
2026-05-06 01:19 -10.56774 -59.16992 38026 ft 455 kts 294°
2026-05-06 01:20 -10.54122 -59.22834 38040 ft 454 kts 294°
2026-05-06 01:20 -10.51468 -59.28685 38043 ft 455 kts 293°
2026-05-06 01:21 -10.49123 -59.34634 38020 ft 456 kts 290°
2026-05-06 01:21 -10.46884 -59.40658 38021 ft 455 kts 290°
2026-05-06 01:22 -10.44635 -59.46675 38022 ft 455 kts 290°
2026-05-06 01:22 -10.42374 -59.52653 38021 ft 455 kts 291°
2026-05-06 01:23 -10.40118 -59.58624 38006 ft 455 kts 290°
2026-05-06 01:23 -10.37840 -59.64624 38018 ft 456 kts 291°
2026-05-06 01:24 -10.35545 -59.70583 38019 ft 455 kts 291°
2026-05-06 01:24 -10.33256 -59.76588 38033 ft 456 kts 290°
2026-05-06 01:25 -10.30985 -59.82638 38024 ft 459 kts 291°
2026-05-06 01:25 -10.28654 -59.88702 38023 ft 461 kts 291°
2026-05-06 01:26 -10.26316 -59.94788 38019 ft 463 kts 291°
2026-05-06 01:26 -10.23993 -60.00857 38019 ft 464 kts 291°
2026-05-06 01:27 -10.21656 -60.06975 38012 ft 465 kts 291°
2026-05-06 01:27 -10.19313 -60.13100 38013 ft 464 kts 291°
2026-05-06 01:28 -10.16974 -60.19208 38013 ft 463 kts 291°
2026-05-06 01:28 -10.14656 -60.25261 38011 ft 462 kts 291°
2026-05-06 01:29 -10.12331 -60.31324 38010 ft 460 kts 291°
2026-05-06 01:29 -10.10012 -60.37372 38010 ft 459 kts 291°
2026-05-06 01:30 -10.07698 -60.43403 38012 ft 457 kts 291°
2026-05-06 01:30 -10.05390 -60.49412 38016 ft 456 kts 291°
2026-05-06 01:31 -10.03088 -60.55400 38006 ft 456 kts 291°
2026-05-06 01:31 -10.00805 -60.61353 38013 ft 456 kts 291°
2026-05-06 01:32 -9.98491 -60.67357 38022 ft 458 kts 291°
2026-05-06 01:32 -9.96167 -60.73402 38010 ft 460 kts 291°
2026-05-06 01:33 -9.93854 -60.79433 38018 ft 457 kts 292°
2026-05-06 01:33 -9.91527 -60.85453 38007 ft 460 kts 291°
2026-05-06 01:34 -9.89199 -60.91468 38024 ft 462 kts 291°
2026-05-06 01:34 -9.86847 -60.97531 38021 ft 462 kts 291°
2026-05-06 01:35 -9.84516 -61.03552 38010 ft 459 kts 291°
2026-05-06 01:35 -9.82174 -61.09595 38022 ft 458 kts 291°
2026-05-06 01:36 -9.79831 -61.15637 38011 ft 461 kts 291°
2026-05-06 01:36 -9.77468 -61.21698 38012 ft 460 kts 291°
2026-05-06 01:37 -9.75126 -61.27712 38021 ft 460 kts 291°
2026-05-06 01:37 -9.72781 -61.33767 38039 ft 461 kts 291°
2026-05-06 01:38 -9.70388 -61.39830 38019 ft 464 kts 292°
2026-05-06 01:38 -9.68044 -61.45884 38005 ft 458 kts 291°
2026-05-06 01:39 -9.65761 -61.51835 38009 ft 454 kts 291°
2026-05-06 01:39 -9.63420 -61.57774 37814 ft 456 kts 292°
2026-05-06 01:40 -9.62250 -61.60748 37488 ft 452 kts 291°
2026-05-06 01:40 -9.61099 -61.63692 37057 ft 447 kts 292°
2026-05-06 01:40 -9.59964 -61.66617 36653 ft 443 kts 292°
2026-05-06 01:40 -9.58822 -61.69516 36255 ft 439 kts 292°
2026-05-06 01:41 -9.57705 -61.72343 35864 ft 434 kts 291°
2026-05-06 01:41 -9.56604 -61.75178 35456 ft 430 kts 292°
2026-05-06 01:41 -9.55506 -61.78000 35050 ft 428 kts 292°
2026-05-06 01:41 -9.54399 -61.80823 34658 ft 438 kts 292°
2026-05-06 01:42 -9.53251 -61.83756 34232 ft 456 kts 292°
2026-05-06 01:42 -9.52060 -61.86802 33759 ft 473 kts 292°
2026-05-06 01:42 -9.51251 -61.88868 33434 ft 475 kts 292°
2026-05-06 01:42 -9.50035 -61.91972 32961 ft 473 kts 292°
2026-05-06 01:43 -9.48822 -61.95067 32394 ft 472 kts 292°
2026-05-06 01:43 -9.47614 -61.98139 31946 ft 468 kts 292°
2026-05-06 01:43 -9.46408 -62.01202 31509 ft 465 kts 292°
2026-05-06 01:43 -9.45212 -62.04241 31076 ft 462 kts 292°
2026-05-06 01:44 -9.44028 -62.07245 30646 ft 471 kts 292°
2026-05-06 01:44 -9.42789 -62.10386 30188 ft 486 kts 293°
2026-05-06 01:44 -9.41533 -62.13571 29660 ft 485 kts 293°
2026-05-06 01:44 -9.40285 -62.16738 29160 ft 482 kts 293°
2026-05-06 01:45 -9.39045 -62.19886 28675 ft 479 kts 292°
2026-05-06 01:45 -9.37815 -62.23006 28193 ft 475 kts 293°
2026-05-06 01:45 -9.36588 -62.26115 27732 ft 473 kts 293°
2026-05-06 01:45 -9.35386 -62.29160 27279 ft 470 kts 293°
2026-05-06 01:46 -9.34176 -62.32224 26818 ft 468 kts 293°
2026-05-06 01:46 -9.32967 -62.35283 26353 ft 467 kts 293°
2026-05-06 01:46 -9.31763 -62.38330 25882 ft 465 kts 292°
2026-05-06 01:46 -9.30562 -62.41368 25411 ft 464 kts 292°
2026-05-06 01:47 -9.29367 -62.44394 24946 ft 462 kts 292°
2026-05-06 01:47 -9.28172 -62.47414 24480 ft 460 kts 292°
2026-05-06 01:47 -9.26984 -62.50417 24020 ft 458 kts 292°
2026-05-06 01:47 -9.25802 -62.53403 23546 ft 455 kts 292°
2026-05-06 01:48 -9.24642 -62.56337 23026 ft 452 kts 292°
2026-05-06 01:48 -9.23480 -62.59272 22559 ft 447 kts 292°
2026-05-06 01:48 -9.22328 -62.62183 22105 ft 442 kts 292°
2026-05-06 01:48 -9.21190 -62.65055 21667 ft 438 kts 292°
2026-05-06 01:49 -9.20063 -62.67900 21212 ft 434 kts 292°
2026-05-06 01:49 -9.18941 -62.70731 20781 ft 431 kts 292°
2026-05-06 01:49 -9.17823 -62.73550 20347 ft 429 kts 292°
2026-05-06 01:49 -9.16728 -62.76310 19901 ft 427 kts 293°
2026-05-06 01:50 -9.15624 -62.79093 19471 ft 425 kts 293°
2026-05-06 01:50 -9.14523 -62.81867 19036 ft 423 kts 293°
2026-05-06 01:50 -9.13426 -62.84629 18605 ft 422 kts 293°
2026-05-06 01:50 -9.12334 -62.87378 18151 ft 420 kts 293°
2026-05-06 01:51 -9.11132 -62.90408 17636 ft 416 kts 293°
2026-05-06 01:51 -9.10058 -62.93113 17207 ft 412 kts 292°
2026-05-06 01:51 -9.08987 -62.95813 16601 ft 413 kts 292°
2026-05-06 01:51 -9.07926 -62.98500 16126 ft 410 kts 292°
2026-05-06 01:52 -9.06872 -63.01169 15706 ft 405 kts 292°
2026-05-06 01:52 -9.05836 -63.03794 15296 ft 399 kts 292°
2026-05-06 01:52 -9.04811 -63.06386 14886 ft 394 kts 292°
2026-05-06 01:52 -9.03799 -63.08944 14489 ft 390 kts 292°
2026-05-06 01:53 -9.02805 -63.11454 14096 ft 388 kts 292°
2026-05-06 01:53 -9.01810 -63.13967 13670 ft 380 kts 292°
2026-05-06 01:53 -9.00847 -63.16397 13254 ft 364 kts 292°
2026-05-06 01:53 -8.99919 -63.18738 12876 ft 351 kts 292°
2026-05-06 01:54 -8.99017 -63.21011 12533 ft 346 kts 292°
2026-05-06 01:54 -8.98125 -63.23263 12183 ft 343 kts 292°
2026-05-06 01:54 -8.97241 -63.25492 11837 ft 340 kts 292°
2026-05-06 01:54 -8.96364 -63.27703 11486 ft 338 kts 292°
2026-05-06 01:55 -8.95492 -63.29901 11155 ft 335 kts 292°
2026-05-06 01:55 -8.94628 -63.32081 10819 ft 333 kts 292°
2026-05-06 01:55 -8.93766 -63.34255 10463 ft 333 kts 292°
2026-05-06 01:55 -8.92906 -63.36420 10192 ft 329 kts 292°
2026-05-06 01:56 -8.92066 -63.38536 10009 ft 321 kts 292°
2026-05-06 01:56 -8.91236 -63.40627 9677 ft 319 kts 292°
2026-05-06 01:56 -8.90422 -63.42677 9345 ft 317 kts 292°
2026-05-06 01:56 -8.89603 -63.44740 9026 ft 314 kts 292°
2026-05-06 01:57 -8.88965 -63.46844 8686 ft 313 kts 275°
2026-05-06 01:57 -8.89035 -63.49025 8407 ft 309 kts 265°
2026-05-06 01:57 -8.89227 -63.51182 8092 ft 307 kts 264°
2026-05-06 01:57 -8.89425 -63.53327 7781 ft 305 kts 264°
2026-05-06 01:58 -8.89616 -63.55456 7472 ft 303 kts 264°
2026-05-06 01:58 -8.89800 -63.57551 7171 ft 302 kts 264°
2026-05-06 01:58 -8.89980 -63.59664 6867 ft 301 kts 265°
2026-05-06 01:58 -8.90156 -63.61768 6552 ft 300 kts 265°
2026-05-06 01:59 -8.90330 -63.63866 6229 ft 297 kts 265°
2026-05-06 01:59 -8.90500 -63.65931 5895 ft 290 kts 265°
2026-05-06 01:59 -8.90662 -63.67942 5631 ft 282 kts 265°
2026-05-06 01:59 -8.90819 -63.69889 5338 ft 273 kts 265°
2026-05-06 02:00 -8.90974 -63.71780 5050 ft 266 kts 265°
2026-05-06 02:00 -8.91124 -63.73625 4777 ft 260 kts 265°
2026-05-06 02:00 -8.91270 -63.75411 4506 ft 250 kts 265°
2026-05-06 02:00 -8.91410 -63.77136 4288 ft 241 kts 265°
2026-05-06 02:01 -8.91545 -63.78776 4165 ft 230 kts 265°
2026-05-06 02:01 -8.91421 -63.80347 4034 ft 221 kts 289°
2026-05-06 02:01 -8.90942 -63.81801 3980 ft 217 kts 288°
2026-05-06 02:01 -8.90505 -63.83237 3883 ft 217 kts 288°
2026-05-06 02:02 -8.90070 -63.84690 3702 ft 213 kts 288°
2026-05-06 02:02 -8.89653 -63.86090 3567 ft 205 kts 288°
2026-05-06 02:02 -8.89248 -63.87461 3408 ft 202 kts 288°
2026-05-06 02:02 -8.88618 -63.88693 3139 ft 196 kts 321°
2026-05-06 02:03 -8.87435 -63.89153 3058 ft 177 kts 355°
2026-05-06 02:03 -8.86205 -63.89293 3031 ft 179 kts 358°
2026-05-06 02:03 -8.84958 -63.89381 2898 ft 175 kts 360°
2026-05-06 02:03 -8.83762 -63.89453 2651 ft 170 kts 359°
2026-05-06 02:04 -8.82593 -63.89521 2420 ft 168 kts 360°
2026-05-06 02:04 -8.81468 -63.89595 2210 ft 156 kts 359°
2026-05-06 02:04 -8.80430 -63.89686 1995 ft 147 kts 360°
2026-05-06 02:04 -8.79409 -63.89743 1758 ft 147 kts
2026-05-06 02:05 -8.78402 -63.89794 1562 ft 144 kts
2026-05-06 02:05 -8.77388 -63.89852 1376 ft 146 kts 359°
2026-05-06 02:05 -8.76374 -63.89910 1171 ft 145 kts 358°
2026-05-06 02:05 -8.75365 -63.89972 971 ft 145 kts 357°
2026-05-06 02:06 -8.74359 -63.90030 781 ft 145 kts 356°
2026-05-06 02:06 -8.73355 -63.90086 580 ft 144 kts 356°
2026-05-06 02:06 -8.72364 -63.90148 404 ft 141 kts 357°
2026-05-06 02:06 -8.71400 -63.90202 300 ft 131 kts 356°
2026-05-06 02:07 -8.70702 -63.90245 298 ft 69 kts 356°
2026-05-06 02:07 -8.70430 -63.90259 300 ft 29 kts 357°
2026-05-06 02:07 -8.70336 -63.90259 302 ft 6 kts 20°
2026-05-06 02:07 -8.70312 -63.90224 302 ft 7 kts 79°
2026-05-06 02:08 -8.70305 -63.90163 301 ft 11 kts 87°
2026-05-06 02:08 -8.70371 -63.90118 301 ft 15 kts 176°
2026-05-06 02:08 -8.70494 -63.90111 302 ft 20 kts 176°
2026-05-06 02:08 -8.70640 -63.90102 301 ft 21 kts 176°
2026-05-06 02:09 -8.70786 -63.90094 300 ft 21 kts 176°
2026-05-06 02:09 -8.70927 -63.90086 301 ft 20 kts 177°
2026-05-06 02:09 -8.71064 -63.90078 303 ft 19 kts 176°
2026-05-06 02:09 -8.71196 -63.90069 300 ft 19 kts 176°
2026-05-06 02:10 -8.71323 -63.90062 300 ft 18 kts 177°
2026-05-06 02:10 -8.71389 -63.90058 302 ft 9 kts 177°
2026-05-06 02:10 -8.71427 -63.90024 302 ft 8 kts 86°
2026-05-06 02:10 -8.71422 -63.89966 299 ft 8 kts 86°
2026-05-06 02:11 -8.71420 -63.89929 299 ft 0 kts 86°